Weather observations for the past three days for
Beverly, Beverly Municipal Airport
Metric (Imperial)
Date Time (edt) Wind (kph) Vis. (km) Weather Sky Cond. Temperature (ºC) Relative Humidity Wind Chill (°C) Heat Index (°C) Pressure Precipitation (cm)
Air Dwpt 6 hour altimeter (cm) sea level (mb) 1 hr 3 hr 6 hr
Max. Min.
08 09:53 W 19 G 31 16.09 Fair CLR 12.8 -2.2 36% 75.74 1009.3
08 08:53 NW 11 16.09 Fair CLR 11.7 -1.1 41% 75.74 1009.3
08 07:53 W 11 16.09 Fair CLR 9.4 -1.1 9.4 2.8 48% 8 75.77 1009.6
08 06:53 Calm 16.09 Fair CLR 6.1 0 65% 75.74 1009.4
08 05:53 W 6 16.09 A Few Clouds FEW120 5 -1.1 65% 75.69 1008.7
08 04:53 W 6 16.09 Fair CLR 3.9 -1.1 70% 75.69 1008.6
08 03:53 W 6 16.09 Fair CLR 3.3 -1.1 73% 75.62 1007.6
08 02:53 Calm 16.09 Fair CLR 6.1 -1.7 58% 75.57 1007.0
08 01:53 NW 13 16.09 Fair CLR 7.8 -2.2 13.3 6.7 50% 6 75.57 1007.1
08 00:53 NW 17 16.09 Fair CLR 7.2 -1.1 56% 5 75.59 1007.3
07 23:53 NW 15 16.09 Fair CLR 9.4 -1.7 46% 7 75.62 1007.6
07 22:53 W 13 16.09 Fair CLR 10.6 -1.7 43% 75.59 1007.4
07 21:53 W 9 16.09 Fair CLR 11.1 -1.7 41% 75.59 1007.4
07 20:53 W 9 16.09 Fair CLR 12.2 -2.8 35% 75.51 1006.4
07 19:53 W 11 16.09 Fair CLR 13.3 -3.3 17.8 13.3 32% 75.46 1005.7
07 18:53 W 19 G 30 16.09 Fair CLR 15 -3.3 28% 75.44 1005.1
07 17:53 NW 26 G 37 16.09 Fair CLR 16.7 -2.2 28% 75.39 1004.7
07 16:53 W 26 G 46 16.09 Fair CLR 17.2 -1.7 28% 75.36 1004.3
07 15:53 NW 13 G 31 16.09 Fair CLR 17.2 -2.2 27% 75.39 1004.7
07 14:53 W 28 G 44 16.09 Fair CLR 17.2 -2.2 27% 75.41 1005.0
07 13:53 NW 19 G 48 16.09 Fair CLR 16.7 0 16.7 10 32% 75.44 1005.4
07 12:53 NW 28 G 43 16.09 Partly Cloudy SCT050 16.1 5 48% 75.46 1005.6
07 11:53 W 17 16.09 Mostly Cloudy BKN055 15 3.9 48% 75.51 1006.4
07 10:53 W 13 16.09 Partly Cloudy SCT045 15 3.9 48% 75.57 1006.9
07 09:53 NW 13 16.09 Fair CLR 13.3 3.9 53% 75.57 1006.9
07 08:53 NW 15 16.09 Fair CLR 11.7 5 64% 75.62 1007.5
07 07:53 W 9 16.09 Overcast OVC110 10 7.2 12.8 8.9 83% 9 75.59 1007.4 0.13
07 06:53 W 6 16.09 Overcast OVC100 9.4 7.2 86% 75.59 1007.4 0.03
07 05:53 NW 9 16.09 Light Rain OVC090 8.9 7.2 89% 8 75.54 1006.6 0.08
07 04:53 W 11 16.09 Overcast BKN060 OVC075 10.6 7.2 80% 75.54 1006.7 0.03
07 03:53 NW 17 12.87 Rain BKN055 OVC080 11.1 7.2 77% 75.51 1006.3 0.03
07 02:53 NW 9 16.09 Overcast BKN048 OVC075 12.2 9.4 83% 75.49 1005.8
07 01:53 NW 15 16.09 Overcast FEW014 OVC041 12.8 10.6 15 12.8 87% 75.49 1005.8
07 00:53 NW 11 16.09 Overcast SCT012 OVC019 14.4 12.8 90% 75.46 1005.8
06 23:53 SW 15 9.66 Light Rain Fog/Mist FEW008 SCT014 OVC033 15 13.9 93% 75.46 1005.6
06 22:53 SW 19 16.09 Overcast OVC009 15 13.9 93% 75.41 1005.0
06 21:53 SW 15 16.09 Overcast OVC008 14.4 13.3 93% 75.44 1005.3
06 20:53 SW 17 16.09 Overcast OVC009 14.4 13.3 93% 75.46 1005.6
06 19:53 S 19 16.09 Light Rain OVC010 13.9 13.3 20 13.9 96% 75.46 1005.5 0.08 0.15
06 18:53 S 19 11.27 Overcast SCT014 OVC060 14.4 13.3 93% 75.46 1005.6
06 17:53 S 20 G 30 16.09 Overcast BKN018 OVC025 16.1 13.9 87% 75.49 1006.1 0.03
06 16:53 S 17 G 37 8.05 Light Rain Fog/Mist SCT021 BKN025 OVC065 15.6 13.3 86% 75.54 1006.6 0.03 0.05
06 15:53 S 20 G 37 11.27 Light Rain OVC090 16.7 13.3 80% 75.54 1006.5 0.03
06 14:53 S 22 G 37 16.09 Light Rain FEW070 OVC100 18.9 12.2 65% 75.54 1006.6
06 13:53 S 26 G 46 16.09 A Few Clouds FEW120 20 12.2 21.1 16.1 61% 75.59 1007.0
06 12:53 S 22 G 33 16.09 Fair CLR 19.4 12.2 63% 75.62 1007.4
06 11:53 S 28 G 43 16.09 Fair CLR 20.6 12.2 59% 75.67 1008.3
06 10:53 S 28 G 41 16.09 Fair CLR 20 12.2 61% 75.72 1008.9
06 09:53 S 19 G 33 16.09 Fair CLR 18.3 12.8 70% 75.72 1008.9
06 08:53 S 17 G 33 16.09 Fair CLR 18.3 12.8 70% 75.74 1009.2
06 07:53 S 19 16.09 Fair CLR 16.1 12.2 16.7 15.6 78% 75.77 1009.6
06 06:53 S 13 16.09 Fair CLR 15.6 11.7 78% 75.77 1009.6
06 05:53 S 19 16.09 Fair CLR 15.6 11.7 78% 75.74 1009.4
06 04:53 SW 19 G 31 16.09 Fair CLR 16.1 11.1 72% 75.77 1009.5
06 03:53 SW 20 G 39 16.09 Fair CLR 16.7 11.1 70% 75.77 1009.4
06 02:53 S 22 16.09 Fair CLR 16.7 10.6 67% 75.72 1009.0
06 01:53 SW 17 16.09 Fair CLR 16.7 10 19.4 16.7 65% 75.72 1009.0
06 00:53 S 19 G 37 16.09 Fair CLR 17.2 9.4 60% 75.77 1009.4
05 23:53 SW 17 G 35 16.09 Fair CLR 17.8 9.4 58% 75.74 1009.3
05 22:53 SW 22 G 39 16.09 Fair CLR 17.8 8.9 56% 75.74 1009.2
05 21:53 SW 24 G 41 16.09 Fair CLR 18.3 8.9 54% 75.72 1009.0
05 20:53 SW 24 G 48 16.09 Fair CLR 18.9 9.4 54% 75.69 1008.4
05 19:53 S 22 G 39 16.09 Fair CLR 19.4 8.9 26.1 19.4 51% 75.62 1007.6
05 18:53 S 20 G 41 16.09 Fair CLR 21.7 9.4 46% 75.54 1006.6
05 17:53 S 26 G 46 16.09 Fair CLR 22.2 9.4 44% 75.49 1006.0
05 16:53 S 28 G 50 16.09 Fair CLR 22.8 9.4 43% 75.46 1005.7
05 15:53 S 35 G 54 16.09 Fair and Breezy CLR 25 10 39% 26 75.46 1005.4
05 14:53 S 33 G 59 16.09 Fair and Breezy CLR 25 10.6 40% 26 75.54 1006.3
05 13:53 S 31 G 50 16.09 Fair CLR 25.6 10.6 26.7 16.1 39% 26 75.57 1006.9
05 12:53 SW 24 G 43 16.09 Fair CLR 25.6 9.4 36% 26 75.62 1007.5
05 11:53 SW 19 G 35 16.09 Fair CLR 23.3 10 43% 75.69 1008.6
05 10:53 SW 26 16.09 Partly Cloudy SCT095 21.1 10 49% 75.74 1009.1
Date Time (edt) Wind (kph) Vis. (km) Weather Sky Cond. Air Dwpt Max. Min. Relative Humidity Wind Chill (°C) Heat Index (°C) altimeter (cm) sea level (mb) 1 hr 3 hr 6 hr
6 hour
Temperature (ºC) Pressure Precipitation (cm)